EW6810 Weather Reports


Display with metric or nautical units.
time (UTC)temp
F
wind
direction
speed
MPH
gust
MPH
rain 1hr
in
rain 24hr
in
rain mn
in
humidity
%
barometer
mb
20260507024040 55 162 0.0 2.0 0.00 0.00 0.00 81 1016.2
20260507023540 55 132 0.0 4.0 0.00 0.00 0.00 81 1016.1
20260507023040 55 132 1.0 4.0 0.00 0.00 0.00 81 1016.1
20260507022541 55 106 0.0 3.0 0.00 0.00 0.00 81 1016.0
20260507022040 55 92 0.0 2.0 0.00 0.00 0.00 81 1016.0
20260507021546 55 93 0.0 3.0 0.00 0.00 0.00 80 1016.0
20260507021040 55 93 1.0 3.0 0.00 0.00 0.00 80 1016.1
20260507020542 55 15 0.0 4.0 0.00 0.00 0.00 80 1016.0
20260507020039 55 354 1.0 4.0 0.00 0.00 0.00 80 1016.0
20260507015538 56 111 0.0 4.0 0.00 0.00 0.00 80 1016.0
20260507015038 56 40 1.0 4.0 0.00 0.00 0.00 80 1016.0
20260507014543 55 218 0.0 3.0 0.00 0.00 0.00 80 1015.9
20260507014038 56 183 1.0 3.0 0.00 0.00 0.00 80 1015.8
20260507013537 56 165 0.0 3.0 0.00 0.00 0.00 79 1015.7
20260507013037 56 59 1.0 3.0 0.00 0.00 0.00 79 1015.8
20260507012540 56 164 0.0 3.0 0.00 0.00 0.00 79 1015.9
20260507012038 56 111 0.0 3.0 0.00 0.00 0.00 80 1015.9
20260507011543 55 123 0.0 3.0 0.00 0.00 0.00 80 1015.9
20260507011038 55 84 0.0 2.0 0.00 0.00 0.00 80 1016.0
20260507010538 55 83 0.0 3.0 0.00 0.00 0.00 81 1016.0
20260507010040 55 111 1.0 3.0 0.00 0.00 0.00 81 1016.0
20260507005536 55 171 0.0 2.0 0.00 0.00 0.00 82 1016.1
20260507005038 55 171 0.0 2.0 0.00 0.00 0.00 82 1016.1
20260507004535 55 171 0.0 3.0 0.00 0.00 0.00 81 1016.2
20260507004035 55 101 0.0 3.0 0.00 0.00 0.00 81 1016.1
20260507003534 55 75 0.0 3.0 0.00 0.00 0.00 81 1016.1
20260507003039 55 48 1.0 3.0 0.00 0.00 0.00 81 1016.1
20260507002535 55 119 0.0 2.0 0.00 0.00 0.00 81 1016.1
20260507002034 55 119 0.0 2.0 0.00 0.00 0.00 81 1016.1
20260507001542 55 111 0.0 2.0 0.00 0.00 0.00 81 1016.1
20260507001034 55 88 0.0 2.0 0.00 0.00 0.00 81 1016.1
20260507000633 56 88 0.0 2.0 0.00 0.00 0.00 80 1016.1
20260507000036 56 86 0.0 3.0 0.00 0.00 0.00 81 1016.0
20260506235534 56 97 0.0 3.0 0.00 0.00 0.00 80 1016.1
20260506235033 56 30 1.0 3.0 0.00 0.00 0.00 79 1016.0
20260506234533 56 271 0.0 4.0 0.00 0.00 0.00 79 1015.9
20260506234033 56 134 0.0 2.0 0.00 0.00 0.00 79 1015.9
20260506233533 56 156 1.0 3.0 0.00 0.00 0.00 80 1015.9
20260506233033 56 36 0.0 3.0 0.00 0.00 0.00 79 1015.9
20260506232532 56 186 0.0 4.0 0.00 0.00 0.00 80 1015.9
20260506232033 56 170 0.0 4.0 0.00 0.00 0.00 80 1016.0
20260506231536 56 94 1.0 3.0 0.00 0.00 0.00 80 1016.0
20260506231032 56 127 0.0 2.0 0.00 0.00 0.00 80 1016.0
20260506230632 57 69 0.0 4.0 0.00 0.00 0.00 80 1016.0
20260506230051 56 16 1.0 5.0 0.00 0.00 0.00 80 1015.9
20260506225549 56 129 1.0 5.0 0.00 0.00 0.00 79 1016.0
20260506225053 57 21 1.0 5.0 0.00 0.00 0.00 79 1016.0
20260506224552 57 319 1.0 4.0 0.00 0.00 0.00 80 1015.9
20260506224048 57 155 0.0 9.0 0.00 0.00 0.00 79 1016.0
20260506223548 57 123 2.0 9.0 0.00 0.00 0.00 79 1015.9
20260506223052 57 137 2.0 7.0 0.00 0.00 0.00 78 1016.0
20260506222548 57 50 2.0 4.0 0.00 0.00 0.00 78 1015.9
20260506222048 57 149 1.0 4.0 0.00 0.00 0.00 79 1015.9
20260506221550 57 132 0.0 4.0 0.00 0.00 0.00 80 1016.0
20260506221048 56 45 1.0 4.0 0.00 0.00 0.00 80 1016.0
20260506220647 56 152 1.0 4.0 0.00 0.00 0.00 79 1016.1
20260506220052 56 106 1.0 6.0 0.00 0.00 0.00 79 1016.1
20260506215551 57 174 1.0 9.0 0.00 0.00 0.00 79 1016.1
20260506215053 57 186 1.0 5.0 0.00 0.00 0.00 78 1016.1
20260506214551 57 117 1.0 6.0 0.00 0.00 0.00 78 1016.1
20260506214049 57 30 1.0 6.0 0.00 0.00 0.00 79 1016.1
20260506213549 56 116 0.0 7.0 0.00 0.00 0.00 79 1016.1
20260506213050 56 170 1.0 7.0 0.00 0.00 0.00 80 1016.1
20260506212549 56 348 1.0 6.0 0.00 0.00 0.00 79 1016.1
20260506212050 56 149 1.0 6.0 0.00 0.00 0.00 80 1016.2
20260506211553 56 140 1.0 4.0 0.00 0.00 0.00 80 1016.2
20260506211049 56 147 1.0 5.0 0.00 0.00 0.00 80 1016.2
20260506210651 56 141 1.0 5.0 0.00 0.00 0.00 80 1016.2
20260506210046 56 319 0.0 5.0 0.00 0.00 0.00 80 1016.2
20260506205545 56 84 1.0 5.0 0.00 0.00 0.00 80 1016.4
20260506205046 56 124 0.0 4.0 0.00 0.00 0.00 80 1016.3
20260506204545 56 125 1.0 5.0 0.00 0.00 0.00 80 1016.3
20260506204043 56 145 1.0 5.0 0.00 0.00 0.00 80 1016.3
20260506203543 56 145 0.0 3.0 0.00 0.00 0.00 81 1016.3
20260506203044 56 152 0.0 3.0 0.00 0.00 0.00 80 1016.2
20260506202543 56 11 0.0 3.0 0.00 0.00 0.00 80 1016.2
20260506202043 56 63 0.0 3.0 0.00 0.00 0.00 80 1016.2
20260506201543 56 275 0.0 6.0 0.00 0.00 0.00 80 1016.2
20260506201042 56 175 1.0 6.0 0.00 0.00 0.00 80 1016.2
20260506200642 56 79 1.0 5.0 0.00 0.00 0.00 80 1016.3
20260506200043 57 42 1.0 7.0 0.00 0.00 0.00 80 1016.2
20260506195542 57 354 2.0 7.0 0.00 0.00 0.00 80 1016.1
20260506195044 57 21 1.0 6.0 0.00 0.00 0.00 81 1016.1
20260506194541 57 148 2.0 6.0 0.00 0.00 0.00 79 1015.9
20260506194042 57 177 2.0 6.0 0.00 0.00 0.00 79 1015.9
20260506193541 57 234 0.0 5.0 0.00 0.00 0.00 80 1015.9
20260506193044 57 159 0.0 6.0 0.00 0.00 0.00 80 1016.0
20260506192541 57 170 2.0 6.0 0.00 0.00 0.00 80 1016.0
20260506192040 56 76 0.0 4.0 0.00 0.00 0.00 81 1016.0
20260506191538 56 210 0.0 4.0 0.00 0.00 0.00 81 1016.1
20260506191038 56 172 1.0 4.0 0.00 0.00 0.00 81 1016.0
20260506190637 56 152 1.0 4.0 0.00 0.00 0.00 82 1015.9
20260506190058 55 202 1.0 5.0 0.00 0.00 0.00 83 1015.9
20260506185556 55 239 2.0 5.0 0.00 0.00 0.00 83 1016.0
20260506185055 55 44 1.0 5.0 0.00 0.00 0.00 83 1016.1
20260506184555 56 23 1.0 4.0 0.00 0.00 0.00 83 1016.2
20260506184054 56 94 0.0 3.0 0.00 0.00 0.00 82 1016.0
20260506183554 56 148 0.0 3.0 0.00 0.00 0.00 82 1015.9
20260506183056 56 119 1.0 3.0 0.00 0.00 0.00 83 1015.9
20260506182552 55 272 0.0 3.0 0.00 0.00 0.00 83 1015.9
20260506182052 55 221 1.0 6.0 0.00 0.00 0.00 83 1015.9
20260506181552 55 309 1.0 6.0 0.00 0.00 0.00 83 1015.9
20260506181050 55 157 1.0 5.0 0.00 0.00 0.00 83 1015.8
20260506180652 55 146 1.0 5.0 0.00 0.00 0.00 84 1015.8
20260506180051 55 202 2.0 6.0 0.00 0.00 0.00 83 1015.7
20260506175551 55 151 2.0 5.0 0.00 0.00 0.00 83 1015.6
20260506175049 55 357 1.0 5.0 0.00 0.00 0.00 84 1015.6
20260506174556 55 198 2.0 6.0 0.00 0.00 0.00 84 1015.6
20260506174047 55 201 1.0 4.0 0.00 0.00 0.00 85 1015.7
20260506173546 54 177 1.0 4.0 0.00 0.00 0.00 85 1015.7
20260506173054 54 145 1.0 4.0 0.00 0.00 0.00 86 1015.8
20260506172545 54 155 1.0 7.0 0.00 0.00 0.00 86 1015.6
20260506172046 53 13 2.0 7.0 0.00 0.00 0.00 87 1015.6
20260506171548 53 123 2.0 5.0 0.00 0.00 0.00 87 1015.6
20260506171046 53 45 0.0 3.0 0.00 0.00 0.00 87 1015.6
20260506170645 53 44 0.0 3.0 0.00 0.00 0.00 88 1015.7
20260506170047 53 21 1.0 5.0 0.00 0.00 0.00 88 1015.7
20260506165544 53 138 1.0 5.0 0.00 0.00 0.00 88 1015.7
20260506165044 53 173 0.0 3.0 0.00 0.00 0.00 88 1015.6
20260506164544 53 64 0.0 6.0 0.00 0.00 0.00 89 1015.6
20260506164043 53 187 1.0 6.0 0.00 0.00 0.00 89 1015.5
20260506163546 53 180 0.0 4.0 0.00 0.00 0.00 88 1015.4
20260506163048 53 132 1.0 6.0 0.00 0.00 0.00 88 1015.3
20260506162542 53 144 3.0 10.0 0.00 0.00 0.00 88 1015.2
20260506162042 53 1 1.0 10.0 0.00 0.00 0.00 89 1015.1
20260506161541 53 165 2.0 5.0 0.00 0.00 0.00 89 1015.1
20260506161141 53 162 1.0 4.0 0.00 0.00 0.00 89 1015.2
20260506160512 52 130 1.0 4.0 0.00 0.00 0.00 89 1015.2
20260506160010 53 115 2.0 4.0 0.00 0.00 0.00 89 1015.3
20260506155509 53 148 2.0 5.0 0.00 0.00 0.00 89 1015.2
20260506155009 53 195 1.0 7.0 0.00 0.00 0.00 89 1015.2
20260506154508 53 167 1.0 7.0 0.00 0.00 0.00 89 1015.2
20260506154009 53 145 1.0 4.0 0.00 0.00 0.00 89 1015.1
20260506153510 53 189 0.0 4.0 0.00 0.00 0.00 90 1015.1
20260506153010 53 187 1.0 4.0 0.00 0.00 0.00 90 1015.2
20260506152510 53 334 0.0 6.0 0.00 0.00 0.00 91 1015.2
20260506152007 53 178 2.0 6.0 0.00 0.00 0.00 90 1015.2
20260506151607 52 126 2.0 5.0 0.00 0.00 0.00 90 1015.1
20260506151008 52 353 1.0 5.0 0.00 0.00 0.00 90 1015.1
20260506150508 53 63 0.0 4.0 0.00 0.00 0.00 90 1015.0
20260506150008 53 41 0.0 4.0 0.00 0.00 0.00 89 1015.1
20260506145509 53 172 1.0 4.0 0.00 0.00 0.00 89 1015.1
20260506145007 53 124 1.0 4.0 0.00 0.00 0.00 88 1015.1
20260506144513 53 190 1.0 4.0 0.00 0.00 0.00 88 1015.0
20260506144005 53 101 2.0 4.0 0.00 0.00 0.00 88 1014.8
20260506143505 53 67 0.0 4.0 0.00 0.00 0.00 88 1014.8
20260506143004 53 165 1.0 4.0 0.00 0.00 0.00 88 1014.8
20260506142504 53 25 0.0 3.0 0.00 0.00 0.00 88 1014.6
20260506142002 53 225 0.0 3.0 0.00 0.00 0.00 88 1014.5
20260506141503 53 46 0.0 2.0 0.00 0.00 0.00 88 1014.4
20260506141004 53 106 0.0 4.0 0.00 0.00 0.00 88 1014.3
20260506140602 53 211 1.0 4.0 0.00 0.00 0.00 88 1014.4
20260506140122 53 192 1.0 3.0 0.00 0.00 0.00 88 1014.4
20260506135559 53 204 0.0 3.0 0.00 0.00 0.00 88 1014.4
20260506135101 53 204 0.0 3.0 0.00 0.00 0.00 88 1014.4
20260506134558 53 207 0.0 3.0 0.00 0.00 0.00 88 1014.4
20260506134057 54 202 1.0 3.0 0.00 0.00 0.00 88 1014.2
20260506133558 54 257 1.0 3.0 0.00 0.00 0.00 88 1014.1
20260506133133 54 234 0.0 3.0 0.00 0.00 0.00 88 1014.1
20260506132556 54 234 0.0 1.0 0.00 0.00 0.00 88 1014.1
20260506132055 54 234 0.0 3.0 0.00 0.00 0.00 88 1014.1
20260506131554 53 234 0.0 3.0 0.00 0.00 0.00 88 1014.0
20260506131058 53 138 0.0 2.0 0.00 0.00 0.00 88 1014.0
20260506130553 53 138 0.0 2.0 0.00 0.00 0.00 88 1014.0
20260506130134 54 138 0.0 2.0 0.00 0.00 0.00 87 1013.9
20260506125551 54 138 0.0 0.0 0.00 0.00 0.00 88 1013.9
20260506125051 53 138 0.0 0.0 0.00 0.00 0.00 88 1013.9
20260506124553 53 138 0.0 0.0 0.00 0.00 0.00 88 1013.9
20260506124051 53 138 0.0 1.0 0.00 0.00 0.00 88 1013.9
20260506123552 53 138 0.0 1.0 0.00 0.00 0.00 88 1013.9
20260506123050 53 138 0.0 1.0 0.00 0.00 0.00 88 1013.6
20260506122550 53 138 0.0 2.0 0.00 0.00 0.00 88 1013.6
20260506122049 53 138 0.0 2.0 0.00 0.00 0.00 88 1013.7
20260506121554 54 138 0.0 2.0 0.00 0.00 0.00 88 1013.6
20260506121048 54 138 0.0 2.0 0.00 0.00 0.00 88 1013.6
20260506120551 54 138 0.0 1.0 0.00 0.00 0.00 88 1013.6
20260506120048 54 138 0.0 2.0 0.00 0.00 0.00 88 1013.8
20260506115548 53 138 0.0 2.0 0.00 0.00 0.00 88 1013.7
20260506115050 53 138 0.0 1.0 0.00 0.00 0.00 88 1013.7
20260506114547 53 138 0.0 1.0 0.00 0.00 0.00 88 1013.7
20260506114046 53 138 0.0 3.0 0.00 0.00 0.00 88 1013.8
20260506113546 53 138 1.0 3.0 0.00 0.00 0.00 88 1013.7
20260506113051 53 348 0.0 2.0 0.00 0.00 0.00 88 1013.6
20260506112544 53 348 0.0 2.0 0.00 0.00 0.00 88 1013.6
20260506112047 53 348 1.0 2.0 0.00 0.00 0.00 88 1013.5
20260506111543 53 349 0.0 1.0 0.00 0.00 0.00 89 1013.4
20260506111043 53 349 0.0 1.0 0.00 0.00 0.00 88 1013.4
20260506110543 53 348 0.0 0.0 0.00 0.00 0.00 88 1013.2
20260506110043 53 348 0.0 1.0 0.00 0.00 0.00 88 1013.1
20260506105541 53 348 0.0 1.0 0.00 0.00 0.00 88 1013.1
20260506105041 53 348 0.0 2.0 0.00 0.00 0.00 88 1013.2
20260506104543 53 348 0.0 2.0 0.00 0.00 0.00 88 1013.1
20260506104039 53 348 0.0 1.0 0.00 0.00 0.00 88 1013.1
20260506103539 53 348 0.0 2.0 0.00 0.00 0.00 88 1013.1
20260506103040 53 348 0.0 2.0 0.00 0.00 0.00 88 1013.0
20260506102539 53 348 0.0 2.0 0.00 0.00 0.00 88 1013.1
20260506102039 53 349 0.0 2.0 0.00 0.00 0.00 88 1013.1
20260506101538 52 349 0.0 2.0 0.00 0.00 0.00 88 1013.1
20260506101037 52 349 0.0 1.0 0.00 0.00 0.00 88 1013.0
20260506100537 52 349 0.0 2.0 0.00 0.00 0.00 88 1013.0
20260506100037 53 349 0.0 2.0 0.00 0.00 0.00 88 1012.9
20260506095535 52 349 0.0 2.0 0.00 0.00 0.00 88 1012.9
20260506095035 53 349 0.0 1.0 0.00 0.00 0.00 88 1012.8
20260506094534 53 349 0.0 2.0 0.00 0.00 0.00 87 1012.7
20260506094032 53 349 0.0 2.0 0.00 0.00 0.00 87 1012.7
20260506093535 53 353 0.0 3.0 0.00 0.00 0.00 87 1012.6
20260506093134 53 353 0.0 3.0 0.00 0.00 0.00 87 1012.5
20260506092531 53 248 0.0 1.0 0.00 0.00 0.00 87 1012.5
20260506092030 53 248 0.0 2.0 0.00 0.00 0.00 87 1012.5
20260506091530 53 248 0.0 2.0 0.00 0.00 0.00 87 1012.4
20260506091031 53 248 0.0 2.0 0.00 0.00 0.00 87 1012.4
20260506090528 53 248 0.0 2.0 0.00 0.00 0.00 87 1012.4
20260506090036 53 248 0.0 2.0 0.00 0.00 0.00 86 1012.4
20260506085526 53 248 0.0 2.0 0.00 0.00 0.00 86 1012.4
20260506085028 53 248 1.0 2.0 0.00 0.00 0.00 86 1012.3
20260506084532 53 248 0.0 2.0 0.00 0.00 0.00 86 1012.3
20260506084027 53 248 0.0 2.0 0.00 0.00 0.00 86 1012.3
20260506083525 53 248 0.0 2.0 0.00 0.00 0.00 86 1012.2
20260506083030 54 248 1.0 2.0 0.00 0.00 0.00 86 1012.3
20260506082523 54 247 1.0 3.0 0.00 0.00 0.00 86 1012.2
20260506082023 54 247 1.0 3.0 0.00 0.00 0.00 86 1012.2
20260506081523 54 247 1.0 3.0 0.00 0.00 0.00 86 1012.2
20260506081023 54 232 1.0 3.0 0.00 0.00 0.00 86 1012.3
20260506080523 53 231 1.0 3.0 0.00 0.00 0.00 86 1012.2
20260506073522 54 196 0.0 2.0 0.00 0.00 0.00 85 1012.0
20260506073018 54 196 0.0 2.0 0.00 0.00 0.00 86 1011.9
20260506072517 54 196 0.0 2.0 0.00 0.00 0.00 86 1011.9
20260506072017 54 196 0.0 2.0 0.00 0.00 0.00 86 1011.9
20260506071519 54 196 0.0 2.0 0.00 0.00 0.00 85 1011.9
20260506071016 54 196 0.0 2.0 0.00 0.00 0.00 85 1011.9
20260506070518 54 196 0.0 1.0 0.00 0.00 0.00 85 1011.9
20260506062505 55 190 0.0 1.0 0.00 0.00 0.00 85 1011.7
20260506062005 55 190 0.0 2.0 0.00 0.00 0.00 84 1011.6
20260506061502 55 190 0.0 2.0 0.00 0.00 0.00 84 1011.6
20260506061001 55 189 1.0 2.0 0.00 0.00 0.00 84 1011.7
20260506060600 55 189 0.0 1.0 0.00 0.00 0.00 83 1011.5
20260506051048 56 189 1.0 2.0 0.00 0.00 0.00 82 1011.2
20260506050646 56 189 0.0 2.0 0.00 0.00 0.00 82 1011.2
20260506045046 56 189 0.0 2.0 0.00 0.00 0.00 81 1011.1
20260506044552 57 189 0.0 2.0 0.00 0.00 0.00 81 1011.0
20260506044046 57 189 0.0 2.0 0.00 0.00 0.00 81 1010.9
20260506043546 57 189 0.0 1.0 0.00 0.00 0.00 81 1010.9
20260506043046 57 189 0.0 1.0 0.00 0.00 0.00 80 1010.9
20260506042546 57 189 0.0 2.0 0.00 0.00 0.00 80 1010.9
20260506042046 57 189 0.0 2.0 0.00 0.00 0.00 80 1010.8
20260506041545 57 189 0.0 2.0 0.00 0.00 0.00 80 1010.9
20260506041045 57 189 0.0 2.0 0.00 0.00 0.00 79 1010.8
20260506040645 58 189 1.0 2.0 0.00 0.00 0.00 79 1010.7
20260506040036 58 189 0.0 2.0 0.00 0.00 0.00 79 1010.6
20260506035535 58 189 0.0 1.0 0.00 0.00 0.00 78 1010.7
20260506035035 58 189 0.0 1.0 0.00 0.00 0.00 78 1010.6
20260506034545 58 189 0.0 2.0 0.00 0.00 0.00 78 1010.6
20260506034034 58 189 0.0 2.0 0.00 0.00 0.00 77 1010.5
20260506033533 59 189 0.0 1.0 0.00 0.00 0.00 77 1010.5
20260506033033 59 189 0.0 2.0 0.00 0.00 0.00 77 1010.4
20260506032533 59 189 0.0 2.0 0.00 0.00 0.00 76 1010.3
20260506032034 59 189 0.0 1.0 0.00 0.00 0.00 76 1010.2
20260506031543 60 189 0.0 2.0 0.00 0.00 0.00 75 1010.2
20260506031033 60 189 0.0 2.0 0.00 0.00 0.00 75 1010.2
20260506030634 60 188 0.0 1.0 0.00 0.00 0.00 74 1010.2
20260506030046 60 189 0.0 1.0 0.00 0.00 0.00 74 1010.2
20260506025547 60 188 0.0 1.0 0.00 0.00 0.00 73 1010.2
20260506025046 61 188 0.0 2.0 0.00 0.00 0.00 72 1010.2
20260506024552 61 189 0.0 2.0 0.00 0.00 0.00 72 1010.0